Location: Opava
(49.9500°N, 17.9170°E)
Time: 23:57:45
(UTC+01:00)

ISS - Visible Passes

Search period start: 20 January 2021 00:00
Search period end: 30 January 2021 00:00
Orbit: 418 x 419 km, 51.6° (Epoch: 21 January)

Date Brightness Start Highest point End Pass type
(mag) Time Alt. Az. Time Alt. Az. Time Alt. Az.
20 Jan -2.2 18:42:58 10° SW 18:45:01 29° SSW 18:45:01 29° SSW visible
21 Jan -2.5 17:55:36 10° SSW 17:58:32 28° SE 17:59:24 25° ESE visible
21 Jan -0.6 19:31:43 10° WSW 19:32:21 15° WSW 19:32:21 15° WSW visible
22 Jan -1.9 17:08:27 10° S 17:10:57 20° SE 17:13:27 10° E visible
22 Jan -3.1 18:43:59 10° WSW 18:46:41 53° SW 18:46:41 53° SW visible
23 Jan -3.5 17:56:19 10° SW 17:59:38 56° SSE 18:00:58 31° E visible
23 Jan -0.7 19:33:04 10° W 19:33:55 16° W 19:33:55 16° W visible
24 Jan -2.9 17:08:46 10° SW 17:11:56 40° SSE 17:15:07 10° E visible
24 Jan -3.3 18:45:16 10° W 18:48:08 59° WNW 18:48:08 59° WNW visible
25 Jan -3.8 17:57:27 10° WSW 18:00:49 86° NNW 18:02:20 30° ENE visible
25 Jan -0.8 19:34:25 10° WNW 19:35:17 17° WNW 19:35:17 17° WNW visible
26 Jan -3.7 17:09:41 10° WSW 17:13:03 75° SSE 17:16:26 10° ENE visible
26 Jan -3.2 18:46:35 10° W 18:49:27 54° NW 18:49:27 54° NW visible
27 Jan -3.6 17:58:44 10° W 18:02:05 65° N 18:03:37 29° ENE visible
27 Jan -0.8 19:35:39 10° WNW 19:36:33 17° WNW 19:36:33 17° WNW visible
28 Jan -3.7 17:10:52 10° W 17:14:14 73° N 17:17:37 10° ENE visible
28 Jan -3.3 18:47:50 10° WNW 18:50:43 58° NW 18:50:43 58° NW visible
29 Jan -3.7 17:59:59 10° WNW 18:03:20 64° N 18:04:54 28° ENE visible
29 Jan -0.9 19:36:50 10° WNW 19:37:51 18° W 19:37:51 18° W visible
